Погода в Позарихе

Россия / Свердловская область     56°27′33″N   61°53′04″E
темп.,
°C
ветер,
м/с
пор.,
м/с
влажн.,
%
обл.,
%
осадки,
мм/ч
давл.,
гПа
погр.,
м
6 мая, чт
чт623:00+9зсз81379100 0.9 10001094
02:00+8з812675 0.9 10021006
05:00+6з713725 0.9 1005888
08:00+8з8126126 0.0 10071309
11:00+9з81252100 0.0 10091894
14:00+11зсз9124092 0.0 10112108
17:00+12зсз8113675 0.0 10122047
20:00+10зсз48442 0.0 1014269
7 мая, пт
пт723:00+7з39550 0.0 1016181
02:00+5з410681 0.0 1018195
05:00+4зюз36765 0.0 1020109
08:00+10з46615 0.0 1021361
11:00+15з454676 0.0 10211156
14:00+18з34418 0.0 10201826
17:00+20юз34339 0.0 10192306
20:00+17ю354878 0.0 1019106
8 мая, сб
сб823:00+15зюз2252100 0.0 102041
02:00+14вюв0153100 0.0 102011
05:00+12вюв1159100 0.0 102011
08:00+15в2254100 0.0 1020187
11:00+18вюв2239100 0.0 10201082
14:00+19в3333100 0.0 10192028
17:00+20всв3332100 0.0 10182343
20:00+16ссв3553100 0.1 1019133
9 мая, вс
вс923:00+14св4959100 0.2 1019218
02:00+13в3759100 0.0 1019165
05:00+12ссз2372100 0.1 101952
08:00+14св4858100 0.0 1019572
11:00+17св574895 0.1 10191317
14:00+19св774281 0.3 10181841
17:00+14в61170100 0.4 1019459
20:00+15ссв366594 0.1 1019227
10 мая, пн
пн1023:00+14всв4871100 0.1 1020364
02:00+11св228636 0.0 102025
05:00+10ссв348946 0.0 102147
08:00+13ссв3778100 0.0 1022274
11:00+16ссв346023 0.0 1022679
14:00+21св44316 0.0 10212493
17:00+21св33285 0.0 10212333
20:00+18вюв113798 0.0 102111